Regional Weather Roundup
Issued by NWS

Home | Current Version | Previous Version | Graphics & Text | Print | Product List | Glossary On
Versions: 1 2 3 4 5 6 7 8 9 10 11 12 13 14 15 16 17 18 19 20 21 22 23 24 25 26 27 28 29 30 31 32 33 34 35 36 37 38 39 40 41 42 43 44 45 46 47 48 49 50
000
ASUS45 KTFX 300810
RWRMT
MONTANA REGIONAL WEATHER ROUNDUP
NATIONAL WEATHER SERVICE GREAT FALLS MT
200 AM MDT SAT MAY 30 2015

NOTE: "FAIR" INDICATES FEW OR NO CLOUDS BELOW 12000 FEET WITH NO
SIGNIFICANT WEATHER AND/OR OBSTRUCTIONS TO VISIBILITY.

MTZ001>007-043-300900-
WEST OF THE DIVIDE

CITY           SKY/WX    TMP DP  RH WIND       PRES   REMARKS
KALISPELL      MOSUNNY   52  48  86 N5        29.98F
MISSOULA       CLOUDY    54  47  77 SE5       30.02S
BUTTE          MOCLDY    54  43  66 SE12      30.14S
MULLAN PASS    CLOUDY    55  42  61 CALM      30.08F
DEER LODGE       N/A     52  46  82 CALM      30.12F
EUREKA           N/A     54  52  94 S9        30.04
HAMILTON         N/A     54  46  76 S10       30.03S
LIBBY            N/A     55  54  94 SW3       30.02S
PLAINS           N/A     55  49  80 CALM      29.98S
RONAN            N/A     49  45  86 CALM      30.03S
THOMPSON FALLS   N/A     53  51  93 N3        30.03R
$$

MTZ008-052>055-300900-
SOUTHWEST MONTANA

CITY           SKY/WX    TMP DP  RH WIND       PRES   REMARKS
BOZEMAN        CLOUDY    52  49  89 SE17      30.11F
DILLON         CLOUDY    56  45  66 S6        30.13R
W YELLOWSTONE  MOCLDY    41  37  87 NE3       30.23F
$$

MTZ009-010-012-014-046-048-049-054-300900-
EAST SLOPES AND CENTRAL MONTANA

CITY           SKY/WX    TMP DP  RH WIND       PRES   REMARKS
CUT BANK       MOCLDY    51  44  77 E15       30.07F
GREAT FALLS    PTCLDY    50  46  86 S9        30.05R
MALMSTROM AFB  PTCLDY    51  47  86 SE1       30.06R
HELENA         CLOUDY    53  49  86 CALM      30.09R
CONRAD           N/A     46  46 100 NE2       30.09R
$$

MTZ011-013-016-021-045-047-050-051-300900-
NORTH CENTRAL MONTANA

CITY           SKY/WX    TMP DP  RH WIND       PRES   REMARKS
HAVRE          CLOUDY    50  35  56 E16       30.09F
LEWISTOWN      CLOUDY    50  43  77 E9        30.10F
N BAR RANCH    CLOUDY    48  36  61 SE10      30.16F
CHINOOK          N/A     46  36  66 E14G20    30.13S
FORT BENTON      N/A     57  45  62 NE7       30.07R
$$

MTZ017>020-022>027-061-062-300900-
NORTHEAST MONTANA

CITY           SKY/WX    TMP DP  RH WIND       PRES   REMARKS
GLASGOW        PTCLDY    46  33  60 E13       30.21F
JORDAN           N/A     43  36  76 E3        30.19F
SIDNEY         PTCLDY    37  30  75 CALM      30.29R
WOLF POINT     MOCLDY    42  34  73 NE6       30.26S
MALTA            N/A     51  34  52 NE7       30.14F
PLENTYWOOD       N/A     45  32  61 E13       30.29S
POPLAR           N/A     45  34  65 N3        30.27S
SCOBEY           N/A     44  29  56 E10       30.23S
$$

MTZ028>42-056>058-300900-
SOUTHCENTRAL AND SOUTHEAST MONTANA

CITY           SKY/WX    TMP DP  RH WIND       PRES   REMARKS
BAKER          CLEAR     38  35  89 SE8       30.28R
BILLINGS       MOCLDY    49  42  77 NE5       30.12F
LIVINGSTON     LGT RAIN  51  48  89 S6        30.19F
MILES CITY     CLEAR     46  33  60 E6        30.20F
BIG TIMBER       N/A     52  46  82 SW5       30.19F
EKALAKA          N/A     40  34  79 SE8       30.20S
LAUREL           N/A     50  43  77 CALM      30.11F
ROUNDUP          N/A     49  34  56 CALM      30.05F
$$

REGIONAL REPORTS...DAKOTAS

CITY           SKY/WX    TMP DP  RH WIND       PRES   REMARKS
WILLISTON      PTCLDY    43  34  70 E7        30.30S
MINOT          CLEAR     36  30  79 E7        30.36R WCI  30
DICKINSON      CLEAR     34  29  82 S6        30.28R WCI  29
BEACH          FAIR      36  36 100 SE7       30.29S WCI  30
CROSBY         FAIR      37  36  93 E15       30.33S WCI  28
WATFORD CITY   FAIR      37  34  87 E5        30.28S
BISMARCK       CLEAR     39  34  82 E8        30.34R
GRAND FORKS    CLEAR     36  26  67 N13       30.35R WCI  27
FARGO          CLEAR     38  29  70 N17       30.31R WCI  28
BUFFALO SD       N/A     40  34  79 SE7       30.22S
RAPID CITY     CLEAR     38  35  89 CALM      30.30S
$$

REGIONAL REPORTS...WYOMING/IDAHO/WASHINGTON

CITY           SKY/WX    TMP DP  RH WIND       PRES   REMARKS
GILLETTE       CLEAR     42  36  79 S8        30.22F
SHERIDAN       CLEAR     40  39  97 SW6       30.16F
BUFFALO WY     CLEAR     43  42  97 SE3       30.19F
CODY           CLEAR     46  45  93 CALM      30.18S
YELLOWSTONE LA   N/A     34  32  92 CALM      30.32S
IDAHO FALLS    PTCLDY    49  45  86 N3        30.14S
SALMON         CLOUDY    55  45  67 CALM      30.07R
BOISE          PTCLDY    71  41  33 SE10      29.93F
SPOKANE        CLOUDY    62  50  64 NW14      29.96R
$$

REGIONAL REPORTS...ALBERTA

CITY           SKY/WX    TMP DP  RH WIND       PRES   REMARKS
EDMONTON       CLOUDY    52  34  50 SE10      30.14F
CALGARY        MOCLDY    46  36  66 SE7       30.10F
LETHBRIDGE     CLEAR     45  45 100 E7        30.06F
MEDICINE HAT   MOCLDY    54  34  47 E7        30.11F
$$

REGIONAL REPORTS...SASKATCHEWAN

CITY           SKY/WX    TMP DP  RH WIND       PRES   REMARKS
SWIFT CURRENT  CLOUDY    45  28  53 E21       30.23S
REGINA         PTCLDY    39  27  60 E12       30.34S WCI  32
SASKATOON      MOCLDY    45  25  45 SE9       30.34S
$$



USA.gov is the U.S. government's official web portal to all federal, state and local government web resources and services.